Location: Wildlife_Club
(35.6000°N, 81.4330°W)
Time: 16:10:18
(UTC-04:00)

Altair - All Passes

Search period start: 24 June 2019 00:00
Search period end: 04 July 2019 00:00
Orbit: 1501 x 1683 km, 47.2° (Epoch: 23 June)

Date Brightness Start Highest point End Pass type
(mag) Time Alt. Az. Time Alt. Az. Time Alt. Az.
24 Jun - 00:07:53 10° WNW 00:17:06 43° N 00:26:35 10° ENE visible
24 Jun - 02:13:18 10° NW 02:23:17 74° NNE 02:33:27 10° ESE visible
24 Jun - 04:18:36 10° WNW 04:27:47 42° SW 04:37:04 10° SSE visible
24 Jun - 17:31:03 10° SSE 17:36:33 17° ESE 17:42:09 10° E daylight
24 Jun - 19:30:43 10° SW 19:39:56 70° SE 19:49:32 10° ENE daylight
24 Jun - 21:35:53 10° W 21:45:06 53° NNW 21:54:43 10° NE visible
24 Jun - 23:42:36 10° WNW 23:51:45 43° N 00:01:11 10° ENE visible
25 Jun - 01:48:06 10° NW 01:58:02 70° NNE 02:08:10 10° ESE visible
25 Jun - 03:53:19 10° WNW 04:02:40 46° SW 04:12:07 10° SSE visible
25 Jun - 17:06:49 10° SSE 17:11:32 15° ESE 17:16:18 10° E daylight
25 Jun - 19:05:40 10° SW 19:14:48 64° SE 19:24:17 10° ENE daylight
25 Jun - 21:10:36 10° W 21:19:49 55° NNW 21:29:27 10° NE visible
25 Jun - 23:17:19 10° WNW 23:26:24 42° N 23:35:47 10° ENE visible
26 Jun - 01:22:54 10° NW 01:32:46 66° NNE 01:42:51 10° ESE visible
26 Jun - 03:28:01 10° WNW 03:37:31 50° SW 03:47:08 10° SSE visible
26 Jun - 16:42:52 10° SE 16:46:30 13° ESE 16:50:11 10° E daylight
26 Jun - 18:40:40 10° SSW 18:49:41 59° SE 18:59:01 10° ENE daylight
26 Jun - 20:45:19 10° WSW 20:54:33 58° NNW 21:04:12 10° NE daylight
26 Jun - 22:52:03 10° WNW 23:01:03 42° N 23:10:24 10° ENE visible
27 Jun - 00:57:43 10° NW 01:07:29 63° NNE 01:17:32 10° ESE visible
27 Jun - 03:02:45 10° WNW 03:12:22 54° SW 03:22:08 10° SSE visible
27 Jun - 05:12:30 10° WSW 05:15:41 12° WSW 05:18:53 10° SW visible
27 Jun - 16:19:33 10° SE 16:21:30 11° ESE 16:23:26 10° ESE daylight
27 Jun - 18:15:41 10° SSW 18:24:34 54° SE 18:33:45 10° ENE daylight
27 Jun - 20:20:03 10° WSW 20:29:18 60° NNW 20:38:57 10° NE daylight
27 Jun - 22:26:45 10° WNW 22:35:43 42° N 22:45:01 10° ENE visible
28 Jun - 00:32:31 10° NW 00:42:13 60° NNE 00:52:11 10° ESE visible
28 Jun - 02:37:31 10° WNW 02:47:13 59° SW 02:57:05 10° SSE visible
28 Jun - 04:46:07 10° W 04:50:38 14° WSW 04:55:10 10° SSW visible
28 Jun - 17:50:44 10° SSW 17:59:28 49° SE 18:08:29 10° ENE daylight
28 Jun - 19:54:48 10° WSW 20:04:03 64° NNW 20:13:42 10° NE daylight
28 Jun - 22:01:27 10° WNW 22:10:22 42° N 22:19:38 10° ENE visible
29 Jun - 00:07:19 10° NW 00:16:56 57° NNE 00:26:49 10° E visible
29 Jun - 02:12:17 10° WNW 02:22:03 64° SW 02:32:01 10° SE visible
29 Jun - 04:20:07 10° W 04:25:34 16° WSW 04:31:03 10° SSW visible
29 Jun - 17:25:48 10° SSW 17:34:23 45° SE 17:43:12 10° ENE daylight
29 Jun - 19:29:33 10° WSW 19:38:49 67° NNW 19:48:29 10° NE daylight
29 Jun - 21:36:08 10° WNW 21:45:02 42° N 21:54:16 10° ENE visible
29 Jun - 23:42:07 10° NW 23:51:38 54° NNE 00:01:27 10° E visible
30 Jun - 01:47:04 10° WNW 01:56:53 69° SW 02:06:55 10° SE visible
30 Jun - 03:54:20 10° W 04:00:29 18° SW 04:06:43 10° SSW visible
30 Jun - 17:00:55 10° SSW 17:09:18 41° SE 17:17:54 10° ENE daylight
30 Jun - 19:04:20 10° WSW 19:13:36 71° NNW 19:23:15 10° NE daylight
30 Jun - 21:10:50 10° WNW 21:19:43 42° N 21:28:56 10° ENE visible
30 Jun - 23:16:55 10° NW 23:26:21 52° NNE 23:36:05 10° E visible
01 Jul - 01:21:51 10° WNW 01:31:42 74° SW 01:41:47 10° SE visible
01 Jul - 03:28:40 10° W 03:35:25 21° SW 03:42:15 10° SSW visible
01 Jul - 16:36:04 10° SSW 16:44:13 37° SE 16:52:33 10° ENE daylight
01 Jul - 18:39:08 10° WSW 18:48:24 75° NNW 18:58:02 10° NE daylight
01 Jul - 20:45:31 10° WNW 20:54:23 43° N 21:03:35 10° ENE daylight
01 Jul - 22:51:42 10° WNW 23:01:02 50° NNE 23:10:41 10° E visible
02 Jul - 00:56:39 10° WNW 01:06:30 79° SW 01:16:37 10° SE visible
02 Jul - 03:03:05 10° WNW 03:10:20 23° SW 03:17:41 10° S visible
02 Jul - 16:11:16 10° S 16:19:10 34° SE 16:27:12 10° ENE daylight
02 Jul - 18:13:56 10° WSW 18:23:12 80° NNW 18:32:49 10° NE daylight
02 Jul - 20:20:13 10° W 20:29:04 43° N 20:38:15 10° ENE daylight
02 Jul - 22:26:30 10° WNW 22:35:44 48° NNE 22:45:17 10° E visible
03 Jul - 00:31:28 10° WNW 00:41:19 84° SW 00:51:26 10° SE visible
03 Jul - 02:37:35 10° WNW 02:45:14 26° SW 02:53:02 10° S visible
03 Jul - 15:46:30 10° S 15:54:06 30° SE 16:01:50 10° ENE daylight
03 Jul - 17:48:47 10° WSW 17:58:01 85° NW 18:07:36 10° NE daylight
03 Jul - 19:54:54 10° W 20:03:45 44° N 20:12:57 10° ENE daylight
03 Jul - 22:01:17 10° WNW 22:10:25 47° NNE 22:19:53 10° E visible
